Weather History for West Palm Beach, FL

Change the Weather History Date:

Monday, December 2, 2013

  Actual Average Record
Temperature  
Mean Temperature 67 °F 70 °F  
Max Temperature 72 °F 78 °F 87 °F (1977)
Min Temperature 61 °F 63 °F 43 °F (1956)
Degree Days  
Heating Degree Days 0 1  
Month to date heating degree days 0 2  
Since 1 July heating degree days 4 14  
Cooling Degree Days 2 6  
Month to date cooling degree days 9 12  
Year to date cooling degree days 4210 3878  
Growing Degree Days 18 (Base 50)    
Moisture  
Dew Point 64 °F    
Average Humidity 84    
Maximum Humidity 100    
Minimum Humidity 68    
Precipitation  
Precipitation 0.31 in 0.12 in 3.63 in (1912)
Month to date precipitation 3.01 0.23  
Year to date precipitation 63.65 59.18  
Snow  
Snow 0.00 in - - ()
Month to date snowfall 0.0  
Since 1 July snowfall 0.0  
Snow Depth 0.00 in    
Sea Level Pressure  
Sea Level Pressure 29.89 in    
Wind  
Wind Speed 7 mph (NW)    
Max Wind Speed 15 mph    
Max Gust Speed 20 mph    
Visibility 8 miles    
Events Rain    
T = Trace of Precipitation, MM = Missing Value Source: NWS Daily Summary

Daily Weather History Graph

Daily Weather History Graph

Search for Another Location

Airport:

Trip Planner

Search our weather history database for the weather conditions in past years. The results will help you decide how hot, cold, wet, or windy it might be!

Date:

Astronomy

Dec. 02, 2013 Rise Set
Actual Time 6:52 AM EST 5:27 PM EST
Civil Twilight 6:27 AM EST 5:52 PM EST
Nautical Twilight 5:58 AM EST 6:20 PM EST
Astronomical Twilight 5:30 AM EST 6:49 PM EST
Moon 6:19 AM EST (12/2) 5:25 PM EST (12/2)
Length of Visible Light 11h 24m
Length of Day
10h 34m
Waning Crescent, 0% of the Moon is Illuminated
Dec 2
Waning Crescent
Dec 2
New
Dec 9
First Quarter
Dec 17
Full
Dec 25
Last Quarter

Hourly Weather History & Observations

Time (EST) Temp. Dew Point Humidity Pressure Visibility Wind Dir Wind Speed Gust Speed Precip Events Conditions
12:00 AM 69.8 °F 66.2 °F 88% 29.95 in 0.8 mi East 5.8 mph - 0.07 in Rain Heavy Rain
12:05 AM 69.8 °F 66.2 °F 88% 29.95 in 2.0 mi ENE 5.8 mph - 0.16 in Rain Heavy Rain
12:35 AM 69.8 °F 66.2 °F 88% 29.93 in 3.0 mi ENE 3.5 mph - 0.25 in Rain Light Rain
12:53 AM 69.1 °F 66.9 °F 93% 29.93 in 6.0 mi NE 5.8 mph - 0.30 in Rain Rain
1:07 AM 69.8 °F 66.2 °F 88% 29.92 in 10.0 mi North 4.6 mph - 0.01 in Rain Light Rain
1:14 AM 69.8 °F 66.2 °F 88% 29.92 in 10.0 mi Calm Calm - 0.01 in Rain Light Rain
1:53 AM 69.1 °F 66.0 °F 90% 29.90 in 10.0 mi North 4.6 mph - 0.01 in   Overcast
2:21 AM 69.8 °F 66.2 °F 88% 29.89 in 10.0 mi North 4.6 mph - N/A   Overcast
2:39 AM 69.8 °F 66.2 °F 88% 29.88 in 10.0 mi North 3.5 mph - N/A   Overcast
2:53 AM 69.1 °F 66.9 °F 93% 29.88 in 10.0 mi North 4.6 mph - N/A   Mostly Cloudy
3:07 AM 69.8 °F 66.2 °F 88% 29.87 in 10.0 mi North 5.8 mph - N/A   Overcast
3:21 AM 69.8 °F 66.2 °F 88% 29.87 in 10.0 mi NNW 5.8 mph - N/A   Overcast
3:48 AM 66.2 °F 66.2 °F 100% 29.87 in 10.0 mi NNW 4.6 mph - N/A   Overcast
3:53 AM 68.0 °F 66.9 °F 96% 29.86 in 10.0 mi NNW 4.6 mph - N/A   Overcast
4:45 AM 69.8 °F 66.2 °F 88% 29.86 in 10.0 mi NW 8.1 mph - N/A   Overcast
4:53 AM 68.0 °F 66.9 °F 96% 29.86 in 10.0 mi NW 8.1 mph - 0.00 in Rain Light Rain
5:23 AM 68.0 °F 66.2 °F 94% 29.86 in 7.0 mi NW 5.8 mph - 0.00 in   Overcast
5:38 AM 66.2 °F 66.2 °F 100% 29.86 in 2.5 mi NW 9.2 mph - 0.00 in   Overcast
5:53 AM 66.9 °F 66.0 °F 97% 29.87 in 2.0 mi WNW 8.1 mph - 0.00 in   Overcast
6:08 AM 66.2 °F 64.4 °F 94% 29.87 in 1.5 mi WNW 9.2 mph - N/A   Overcast
6:34 AM 66.2 °F 64.4 °F 94% 29.87 in 3.0 mi West 6.9 mph - N/A   Overcast
6:44 AM 66.2 °F 64.4 °F 94% 29.87 in 6.0 mi West 8.1 mph - N/A   Overcast
6:53 AM 66.0 °F 64.0 °F 93% 29.87 in 6.0 mi West 6.9 mph - N/A   Overcast
7:13 AM 66.2 °F 64.4 °F 94% 29.88 in 6.0 mi WNW 8.1 mph - N/A   Overcast
7:48 AM 66.2 °F 64.4 °F 94% 29.88 in 6.0 mi WNW 9.2 mph - N/A   Mostly Cloudy
7:53 AM 64.9 °F 64.0 °F 97% 29.88 in 6.0 mi WNW 8.1 mph - N/A   Mostly Cloudy
8:49 AM 66.2 °F 64.4 °F 94% 29.90 in 10.0 mi NW 11.5 mph - N/A   Overcast
8:53 AM 66.0 °F 64.0 °F 93% 29.90 in 10.0 mi WNW 12.7 mph - N/A   Overcast
9:53 AM 66.9 °F 64.0 °F 90% 29.92 in 10.0 mi WNW 12.7 mph - N/A   Mostly Cloudy
10:00 AM 66.2 °F 64.4 °F 94% 29.92 in 10.0 mi WNW 11.5 mph - N/A   Mostly Cloudy
10:13 AM 68.0 °F 62.6 °F 83% 29.91 in 10.0 mi WNW 12.7 mph - N/A   Mostly Cloudy
10:53 AM 68.0 °F 63.0 °F 84% 29.90 in 10.0 mi WNW 11.5 mph - N/A   Mostly Cloudy
11:53 AM 69.1 °F 63.0 °F 81% 29.88 in 10.0 mi WNW 10.4 mph - N/A   Mostly Cloudy
12:53 PM 70.0 °F 61.0 °F 73% 29.86 in 10.0 mi NW 9.2 mph - N/A   Mostly Cloudy
1:53 PM 72.0 °F 60.1 °F 66% 29.83 in 10.0 mi NNW 9.2 mph - N/A   Mostly Cloudy
2:53 PM 70.0 °F 60.1 °F 71% 29.83 in 10.0 mi WNW 6.9 mph - N/A   Mostly Cloudy
3:53 PM 70.0 °F 61.0 °F 73% 29.83 in 10.0 mi WNW 8.1 mph - N/A   Mostly Cloudy
4:53 PM 68.0 °F 61.0 °F 78% 29.85 in 10.0 mi West 5.8 mph - N/A   Mostly Cloudy
5:53 PM 66.0 °F 60.1 °F 81% 29.87 in 10.0 mi West 4.6 mph - N/A   Mostly Cloudy
6:53 PM 64.9 °F 61.0 °F 87% 29.89 in 10.0 mi West 5.8 mph - N/A   Mostly Cloudy
7:53 PM 64.0 °F 60.1 °F 87% 29.90 in 10.0 mi West 3.5 mph - N/A   Scattered Clouds
8:53 PM 64.0 °F 60.1 °F 87% 29.90 in 10.0 mi SW 3.5 mph - N/A   Scattered Clouds
9:53 PM 63.0 °F 60.1 °F 90% 29.92 in 10.0 mi West 3.5 mph - N/A   Scattered Clouds
10:53 PM 63.0 °F 60.1 °F 90% 29.92 in 10.0 mi Calm Calm - N/A   Partly Cloudy
11:53 PM 62.1 °F 60.1 °F 93% 29.91 in 10.0 mi Calm Calm - N/A   Partly Cloudy